www.pogodaiklimat.ru

Погода и климат >> Архив погоды >> Китай >> Гуанси-Чжуанский автономный район >> Гуйлинь


ПОГОДА в Гуйлине

  • Прогноз погоды в Гуйлине
  • Монитор погоды в Гуйлине

АРХИВ ПОГОДЫ в Гуйлине

Время (UTC), дата Ветер
(напр.,м/с)
 
Видим.   Явления Облачность Т
(С)
Тd
(С)
f
(%)
Тe
(С)
Тes
(С)
Комфортность P
(гПа)
Po
(гПа)
Тmin
(С)
Tmax
(С)
R
(мм)
R24
(мм)
S
(см)
15 14.07 Ю 1 13 км в посл. час дождь н/о +24.9 +24.6 98 +35 +35 очень
душно
1003.7 984.8
18 14.07 Ю 1 12 км в посл. час дождь ?/? +24.6 +24.4 99 +34 +34 очень
душно
1003.4 984.6 +30.3 5
21 14.07 С 1 10 км н/о +24.2 +24.0 99 +33 +33 очень
душно
1003.0 984.0
00 15.07 штиль 0 4900 м слаб. дождь 10/10 300 м
[]
+24.5 +24.3 99 +34 +34 очень
душно
1004.0 985.1 0.3
03 15.07 С 1 3800 м слаб. дождь 10/10 300 м
[]
+24.6 +24.4 99 +34 +34 очень
душно
1005.0 986.0
06 15.07 С 2 29 км {дождь} 10/10 600 м
[]
+27.0 +25.2 90 +39 +39 очень
душно
1003.5 984.7 +24.2 31
09 15.07 Ю 2 7000 м дымка 9/9 600 м
[]
+28.1 +25.5 86 +41 +42 опасность
перегрева
1001.9 983.2
12 15.07 СВ 1 9000 м 9/9
[]
+27.1 +25.5 91 +40 +40 очень
душно
1003.1 984.3
15 15.07 штиль 0 7000 м дымка н/о +26.2 +25.9 98 +39 +39 очень
душно
1005.0 986.1
18 15.07 СЗ 1 3000 м слаб. дождь ?/? +25.7 +25.5 99 +37 +37 очень
душно
1004.6 985.8 +29.1 3
21 15.07 С 1 1500 м в посл. час дождь н/о +25.3 +25.1 99 +36 +36 очень
душно
1004.4 985.5
00 16.07 штиль 0 4100 м дымка 10/10 600 м
[]
+25.7 +25.5 99 +37 +37 очень
душно
1005.8 987.0 6
03 16.07 С 1 6000 м дымка 9/9 600 м
[]
+27.8 +26.0 90 +42 +44 опасность
перегрева
1005.6 986.8
06 16.07 З 3 29 км в посл. час дождь 3/3 600 м
[]
+31.9 +25.0 67 +45 +57 опасность
перегрева
1003.9 985.3 +25.3 0.0
09 16.07 СЗ 2 30 км 3/3 600 м
[]
+33.7 +24.9 60 +47 +51 опасность
перегрева
1001.5 983.2
12 16.07 В 1 8000 м 5/5 600 м
[]
+30.5 +26.2 78 +46 +46 опасность
перегрева
1002.4 983.8
15 16.07 СВ 1 7000 м н/о +28.3 +26.3 89 +43 +43 опасность
перегрева
1004.5 985.8
18 16.07 Ю 1 н/о дымка ?/? +26.9 +25.7 93 +40 +40 очень
душно
1003.2 984.6 +34.3
21 16.07 штиль 0 5000 м дымка н/о +26.1 +25.6 97 +38 +38 очень
душно
1002.9 984.1
00 17.07 В 1 3600 м дымка 10/10 600 м
[]
+27.0 +26.3 96 +41 +41 опасность
перегрева
1004.3 985.7
03 17.07 С 1 н/о дымка 9/9 1000 м
[]
+32.0 +26.8 74 +49 +52 опасность
перегрева
1004.2 985.7
06 17.07 З 1 29 км 8/8 600 м
[]
+34.9 +25.4 58 +49 +54 опасность
перегрева
1001.4 983.0 +25.8
09 17.07 З 3 29 км 6/6 600 м
[]
+35.5 +25.1 55 +49 +51 опасность
перегрева
999.4 981.2
12 17.07 Ю 1 19 км 5/5
[]
+32.4 +25.0 65 +46 +46 опасность
перегрева
1000.6 982.1
15 17.07 В 1 7000 м дымка ?/? +29.5 +26.3 83 +45 +45 опасность
перегрева
1001.5 982.9
18 17.07 штиль 0 8000 м в посл. час дождь ?/? +27.5 +26.1 92 +41 +41 опасность
перегрева
1000.8 982.4 +35.5
21 17.07 С 1 4500 м дымка н/о +26.8 +25.9 95 +40 +40 очень
душно
1001.0 982.2
00 18.07 С 1 3900 м дымка 9/9 600 м
[]
+27.5 +26.1 92 +41 +42 опасность
перегрева
1001.9 983.4
03 18.07 Ю 2 7000 м дымка 3/3 600 м
[]
+32.3 +25.6 68 +47 +60 опасность
перегрева
1001.0 982.6
06 18.07 З 2 30 км ясно +35.7 +23.0 48 +46 +65 опасность
перегрева
998.4 980.1 +26.3
09 18.07 В 2 30 км 9/9 600 м
[]
+35.5 +23.5 50 +46 +47 опасность
перегрева
997.3 979.1
12 18.07 СВ 1 12 км 9/9 600 м
[]
+32.9 +24.6 62 +46 +46 опасность
перегрева
999.2 980.8
15 18.07 СВ 2 17 км н/о +30.2 +24.4 71 +42 +42 опасность
перегрева
1000.1 981.6
18 18.07 С 2 16 км н/о +28.9 +24.9 79 +41 +41 опасность
перегрева
999.3 981.0 +36.8
21 18.07 ЮЗ 1 11 км н/о +28.1 +25.3 85 +41 +41 опасность
перегрева
1000.1 981.4
00 19.07 В 2 10 км 9/9 600 м
[]
+28.7 +25.3 82 +42 +42 опасность
перегрева
1000.9 982.5 0.0
03 19.07 С 2 29 км 9/9 600 м
[]
+29.3 +23.0 69 +39 +41 очень
душно
1002.7 984.1
06 19.07 С 2 29 км 9/9 600 м
[]
+32.7 +23.1 57 +43 +45 опасность
перегрева
1000.3 981.9 +27.6
09 19.07 СВ 2 20 км {дождь} 9/9 600 м
[]
+33.7 +25.1 61 +48 +48 опасность
перегрева
999.4 981.1
12 19.07 Ю 2 12 км {дождь} 8/8 600 м
[]
+29.7 +25.4 78 +44 +44 опасность
перегрева
1001.1 982.6
15 19.07 Ю 2 14 км н/о +28.9 +24.5 77 +41 +41 опасность
перегрева
1003.5 984.8
18 19.07 ЮВ 2 9000 м н/о +27.8 +25.4 87 +41 +41 опасность
перегрева
1002.4 983.9 +34.0
21 19.07 З 1 9000 м н/о +26.9 +25.1 90 +39 +39 очень
душно
1003.1 984.3
00 20.07 Ю 1 8000 м в посл. час дождь 9/9
[]
+27.8 +25.6 88 +41 +42 опасность
перегрева
1005.1 986.5 0.0
03 20.07 ЮЗ 2 15 км 8/8 600 м
[]
+31.9 +24.2 64 +44 +48 опасность
перегрева
1004.7 986.2
06 20.07 Ю 2 27 км 4/4 600 м
[]
+33.9 +24.2 57 +46 +58 опасность
перегрева
1003.0 984.5 +26.8
09 20.07 Ю 2 30 км 6/6 600 м
[]
+34.5 +24.7 57 +48 +50 опасность
перегрева
1000.5 982.2
12 20.07 З 1 19 км 9/9 600 м
[]
+32.7 +25.5 66 +47 +47 опасность
перегрева
1002.5 984.0
15 20.07 ЮВ 2 4500 м в посл. час дождь н/о +28.0 +26.4 91 +43 +43 опасность
перегрева
1004.7 986.0
18 20.07 В 1 7000 м дымка ?/? +27.5 +26.3 93 +42 +42 опасность
перегрева
1003.7 985.2 +35.4 0.9
21 20.07 Ю 1 26 км н/о +27.5 +25.3 88 +40 +40 очень
душно
1004.1 985.3
00 21.07 Ю 1 19 км 10/10 600 м
[]
+28.4 +25.2 83 +41 +41 опасность
перегрева
1005.4 986.9 0.9
03 21.07 Ю 2 24 км ясно +31.2 +25.3 71 +45 +45 опасность
перегрева
1005.6 987.0
06 21.07 Ю 1 30 км 6/6 600 м
[]
+33.3 +25.3 63 +48 +57 опасность
перегрева
1003.1 984.6 +26.8
09 21.07 Ю 3 29 км 9/9 600 м
[]
+32.1 +25.2 67 +46 +47 опасность
перегрева
1001.4 983.0
12 21.07 Ю 2 29 км 6/6 600 м
[]
+29.5 +25.3 78 +43 +43 опасность
перегрева
1002.9 984.3

 

Местоположение метеостанции Гуйлинь (Гуанси-Чжуанский автономный район, Китай): широта 25.33 долгота 110.30 высота над уровнем моря 166 м.

В архиве по умолчанию представлена погода в Гуйлине за последнюю неделю. Архивные данные за месяц целиком и за предыдущие месяцы, начиная с января 2011 года, Вы можете получить, выбрав интересующий диапазон дат из раскрывающегося списка и нажав кнопку "Ввод!".


*Определитесь, кто Вы:
робот инопланетянин человек

Внимание! Время в таблицах - всемирное. Для получения местного времени необходимо прибавить поправку, которая равна 8 ч.

Смотрите также архив погоды в соседних городах и на ближайших метеорологических станциях:

Погода в Тундао (Хунань, Китай) (107 км)
Погода в Мэншане (Гуанси-Чжуанский автономный район, Китай) (127 км)
Погода в Лючжоу (Гуанси-Чжуанский автономный район, Китай) (142 км)
Погода в Угугане (Хунань, Китай) (159 км)
Погода в Линлине (Хунань, Китай) (165 км)
Погода в Рунцзяне (Гуйчжоу, Китай) (191 км)
Погода в Гуйпине (Гуанси-Чжуанский автономный район, Китай) (216 км)
Погода в Лиан Сиань (Гуандун, Китай) (218 км)
Погода в Учжоу (Гуанси-Чжуанский автономный район, Китай) (229 км)
Погода в Хэчи (Гуанси-Чжуанский автономный район, Китай) (237 км)

Пояснения к столбцам:

Ветер - указаны скорость ветра в м/с - средняя за 10 мин, порывы в срок и между сроками (в фигурных скобках) и направление, откуда дует ветер: С - северный, СВ - северо-восточный, В - восточный, ЮВ - юго-восточный, Ю - южный, ЮЗ - юго-западный, З - западный, СЗ - северо-западный.
Видимость - горизонтальная дальность видимости в метрах или километрах. При видимости от 1 до 10 км при отсутствии осадков обычно наблюдается дымка, при ухудшении видимости до 1 км и менее - туман. В сухую погоду видимость может ухудшаться дымом, пылью или мглою.
Явления - указаны атмосферные явления, наблюдавшиеся в срок или в последний час перед сроком; фигурными скобками обозначены явления, наблюдавшиеся между сроками (за 1-3 часа до срока); квадратными скобками обозначены град или гололедные отложения с указанием их диаметра в мм.
Облачность - указаны через наклонную черту общая и нижняя облачность в баллах и высота нижней границы облаков в метрах; квадратными скобками обозначены формы облаков: Ci - перистые, Cs - перисто-слоистые, Cc - перисто-кучевые, Ac - высококучевые, As - высокослоистые, Sc - слоисто-кучевые, Ns - слоисто-дождевые, Cu - кучевые, Cb - кучево-дождевые. Подробнее классификацию облаков см. в Атласе облаков (PDF).
T - Температура воздуха - температура, измеренная на высоте 2 м над землей.
Td - Температура точки росы - температура, при понижении до которой содержащийся в воздухе водяной пар достигнет насыщения.
f - Относительная влажность воздуха - влажноcть воздуха, измеренная на высоте 2 м над землей.
Te - Эффективная температура - температура, которую ощущает одетый по сезону человек в тени. Характеристика душности погоды. При расчете учитывается влияние влажности воздуха и скорости ветра на теплоощущения человека.
Tes - Эффективная температура на солнце - температура, которую ощущает человек, с поправкой на солнечный нагрев. Характеристика знойности погоды. Зависит от высоты солнца над горизонтом, облачности и скорости ветра. Ночью, в пасмурную погоду, а также при ветре 12 м/с и более поправка равна нулю.
P - Атмосферное давление - приведенное к уровню моря атмосферное давление.
Po - Атмосферное давление - измеренное на уровне метеостанции атмосферное давление.
Tmin - Минимальная температура - минимум температуры воздуха на высоте 2 м над землей.
Tmax - Максимальная температура - максимум температуры воздуха на высоте 2 м над землей.
R - Количество осадков - Количество выпавших осадков за период времени, мм. При наведении курсора мыши на число - период времени, за который выпало указанное количество осадков.
R24 - Количество осадков - Количество выпавших осадков за 24 часа, мм.
S - Снежный покров - Высота снежного покрова, см. При наведении курсора мыши на число - состояние снежного покрова и степень покрытия местности в баллах.